| time (UTC) | temp F | wind direction | speed MPH | gust MPH | rain 1hr in | rain 24hr in | rain mn in | humidity % | barometer mb |
| 20260509150019 | 53 | 247 | 4.0 | 6.0 | 0.00 | 0.02 | 0.00 | 68 | 994.4 |
| 20260509144518 | 53 | 241 | 3.0 | 5.0 | 0.00 | 0.02 | 0.00 | 68 | 994.6 |
| 20260509143009 | 54 | 262 | 2.0 | 6.0 | 0.00 | 0.02 | 0.00 | 66 | 994.9 |
| 20260509141510 | 54 | 267 | 4.0 | 11.0 | 0.00 | 0.02 | 0.00 | 66 | 994.9 |
| 20260509140008 | 54 | 264 | 4.0 | 7.0 | 0.00 | 0.02 | 0.00 | 66 | 994.9 |
| 20260509134510 | 55 | 269 | 4.0 | 9.0 | 0.00 | 0.02 | 0.00 | 65 | 995.0 |
| 20260509133004 | 55 | 271 | 4.0 | 9.0 | 0.00 | 0.02 | 0.00 | 64 | 995.0 |
| 20260509131502 | 56 | 244 | 5.0 | 12.0 | 0.00 | 0.02 | 0.00 | 63 | 994.8 |
| 20260509130059 | 56 | 259 | 5.0 | 16.0 | 0.00 | 0.02 | 0.00 | 63 | 994.7 |
| 20260509124558 | 55 | 257 | 5.0 | 12.0 | 0.00 | 0.02 | 0.00 | 64 | 994.8 |
| 20260509123055 | 56 | 226 | 7.0 | 13.0 | 0.00 | 0.02 | 0.00 | 62 | 994.6 |
| 20260509121553 | 55 | 278 | 6.0 | 12.0 | 0.00 | 0.02 | 0.00 | 65 | 994.6 |
| 20260509120049 | 55 | 229 | 6.0 | 11.0 | 0.00 | 0.03 | 0.02 | 66 | 994.4 |
| 20260509114548 | 55 | 241 | 4.0 | 7.0 | 0.00 | 0.03 | 0.02 | 65 | 994.6 |
| 20260509113051 | 54 | 245 | 3.0 | 8.0 | 0.00 | 0.03 | 0.02 | 66 | 994.8 |
| 20260509111546 | 53 | 260 | 7.0 | 12.0 | 0.00 | 0.03 | 0.02 | 68 | 994.6 |
| 20260509110044 | 53 | 264 | 2.0 | 4.0 | 0.00 | 0.04 | 0.02 | 70 | 995.2 |
| 20260509104544 | 53 | 268 | 1.0 | 5.0 | 0.00 | 0.04 | 0.02 | 69 | 995.1 |
| 20260509103042 | 54 | 238 | 2.0 | 7.0 | 0.00 | 0.04 | 0.02 | 68 | 995.1 |
| 20260509101550 | 54 | 260 | 1.0 | 5.0 | 0.00 | 0.04 | 0.02 | 68 | 995.1 |
| 20260509100041 | 55 | 269 | 2.0 | 6.0 | 0.00 | 0.04 | 0.02 | 66 | 995.1 |
| 20260509094540 | 55 | 244 | 2.0 | 9.0 | 0.00 | 0.04 | 0.02 | 64 | 995.0 |
| 20260509093036 | 55 | 229 | 5.0 | 11.0 | 0.00 | 0.04 | 0.02 | 64 | 994.9 |
| 20260509091533 | 55 | 251 | 5.0 | 10.0 | 0.00 | 0.04 | 0.02 | 65 | 995.1 |
| 20260509090031 | 53 | 249 | 4.0 | 7.0 | 0.00 | 0.04 | 0.02 | 69 | 995.3 |
| 20260509084530 | 53 | 241 | 1.0 | 7.0 | 0.00 | 0.04 | 0.02 | 70 | 995.3 |
| 20260509083028 | 53 | 248 | 0.0 | 3.0 | 0.00 | 0.04 | 0.02 | 70 | 995.2 |
| 20260509081531 | 53 | 257 | 0.0 | 2.0 | 0.00 | 0.04 | 0.02 | 70 | 995.1 |
| 20260509080024 | 54 | 246 | 1.0 | 3.0 | 0.00 | 0.25 | 0.02 | 69 | 995.1 |
| 20260509074523 | 55 | 245 | 0.0 | 4.0 | 0.00 | 0.25 | 0.02 | 69 | 995.1 |
| 20260509073019 | 55 | 248 | 2.0 | 7.0 | 0.00 | 0.25 | 0.02 | 69 | 995.1 |
| 20260509071518 | 56 | 249 | 3.0 | 6.0 | 0.00 | 0.25 | 0.02 | 69 | 995.0 |
| 20260509070016 | 56 | 260 | 2.0 | 7.0 | 0.00 | 0.55 | 0.02 | 69 | 995.1 |
| 20260509064515 | 56 | 259 | 1.0 | 6.0 | 0.00 | 0.55 | 0.02 | 70 | 995.0 |
| 20260509063013 | 57 | 255 | 2.0 | 7.0 | 0.00 | 0.55 | 0.02 | 69 | 994.8 |
| 20260509061511 | 57 | 252 | 3.0 | 11.0 | 0.00 | 0.55 | 0.02 | 69 | 994.8 |
| 20260509060010 | 58 | 252 | 5.0 | 14.0 | 0.00 | 0.75 | 0.02 | 69 | 994.5 |
| 20260509054508 | 58 | 246 | 4.0 | 12.0 | 0.00 | 0.75 | 0.02 | 69 | 994.5 |
| 20260509053006 | 58 | 235 | 4.0 | 11.0 | 0.00 | 0.75 | 0.02 | 69 | 994.4 |
| 20260509051504 | 59 | 264 | 5.0 | 8.0 | 0.00 | 0.75 | 0.02 | 67 | 994.3 |
| 20260509050004 | 60 | 272 | 3.0 | 6.0 | 0.00 | 1.00 | 0.02 | 65 | 994.5 |
| 20260509044504 | 62 | 218 | 3.0 | 7.0 | 0.00 | 1.00 | 0.02 | 63 | 994.4 |
| 20260509043106 | 63 | 262 | 4.0 | 10.0 | 0.00 | 1.00 | 0.02 | 61 | 994.4 |
| 20260509041600 | 63 | 222 | 4.0 | 9.0 | 0.00 | 1.00 | 0.02 | 61 | 994.5 |
| 20260509040059 | 64 | 244 | 4.0 | 9.0 | 0.00 | 1.05 | 0.02 | 59 | 994.6 |
| 20260509034558 | 65 | 275 | 2.0 | 9.0 | 0.00 | 1.05 | 0.02 | 60 | 994.5 |
| 20260509033059 | 64 | 259 | 2.0 | 7.0 | 0.00 | 1.05 | 0.02 | 61 | 994.5 |
| 20260509031554 | 65 | 262 | 6.0 | 14.0 | 0.00 | 1.05 | 0.02 | 60 | 994.4 |
| 20260509030053 | 64 | 250 | 5.0 | 9.0 | 0.00 | 1.06 | 0.02 | 63 | 994.2 |
| 20260509024552 | 64 | 245 | 3.0 | 7.0 | 0.00 | 1.06 | 0.02 | 64 | 994.3 |
| 20260509023051 | 64 | 256 | 2.0 | 6.0 | 0.00 | 1.06 | 0.02 | 65 | 994.2 |
| 20260509021650 | 64 | 261 | 3.0 | 7.0 | 0.00 | 1.06 | 0.02 | 65 | 994.1 |
| 20260509020049 | 64 | 255 | 3.0 | 8.0 | 0.00 | 1.06 | 0.02 | 63 | 994.0 |
| 20260509014549 | 65 | 257 | 3.0 | 7.0 | 0.00 | 1.06 | 0.02 | 62 | 993.9 |
| 20260509013054 | 65 | 250 | 3.0 | 7.0 | 0.00 | 1.06 | 0.02 | 62 | 994.0 |
| 20260509011546 | 65 | 257 | 1.0 | 5.0 | 0.00 | 1.06 | 0.02 | 67 | 994.1 |
| 20260509010044 | 65 | 275 | 3.0 | 8.0 | 0.00 | 1.08 | 0.02 | 68 | 994.2 |
| 20260509004556 | 65 | 264 | 1.0 | 3.0 | 0.00 | 1.08 | 0.02 | 71 | 994.2 |
| 20260509003044 | 64 | 277 | 3.0 | 6.0 | 0.00 | 1.08 | 0.02 | 69 | 994.2 |
| 20260509001549 | 65 | 250 | 2.0 | 6.0 | 0.00 | 1.08 | 0.02 | 68 | 994.3 |
| 20260509000043 | 65 | 259 | 4.0 | 6.0 | 0.00 | 1.09 | 0.02 | 69 | 994.5 |
| 20260508234541 | 63 | 229 | 3.0 | 7.0 | 0.00 | 1.09 | 0.02 | 75 | 994.7 |
| 20260508233036 | 63 | 269 | 2.0 | 7.0 | 0.00 | 1.09 | 0.02 | 76 | 994.8 |
| 20260508231535 | 63 | 273 | 2.0 | 6.0 | 0.00 | 1.09 | 0.02 | 75 | 995.0 |
| 20260508230037 | 63 | 265 | 3.0 | 6.0 | 0.00 | 1.12 | 0.02 | 75 | 995.2 |
| 20260508224546 | 63 | 252 | 3.0 | 9.0 | 0.00 | 1.12 | 0.02 | 76 | 995.2 |
| 20260508223043 | 62 | 267 | 1.0 | 5.0 | 0.00 | 1.12 | 0.02 | 78 | 994.8 |
| 20260508221531 | 62 | 289 | 3.0 | 8.0 | 0.00 | 1.12 | 0.02 | 78 | 994.7 |
| 20260508220031 | 62 | 308 | 2.0 | 9.0 | 0.00 | 1.12 | 0.02 | 78 | 994.7 |
| 20260508214549 | 62 | 289 | 3.0 | 10.0 | 0.00 | 1.12 | 0.02 | 77 | 994.7 |
| 20260508213027 | 63 | 275 | 3.0 | 9.0 | 0.00 | 1.12 | 0.02 | 75 | 994.8 |
| 20260508211525 | 63 | 335 | 2.0 | 11.0 | 0.00 | 1.12 | 0.02 | 75 | 994.7 |
| 20260508210024 | 62 | 269 | 3.0 | 7.0 | 0.00 | 1.20 | 0.02 | 76 | 994.6 |
| 20260508204523 | 62 | 269 | 3.0 | 8.0 | 0.00 | 1.20 | 0.02 | 75 | 994.4 |
| 20260508203020 | 60 | 272 | 4.0 | 10.0 | 0.00 | 1.20 | 0.02 | 78 | 994.1 |
| 20260508201520 | 60 | 278 | 4.0 | 12.0 | 0.00 | 1.20 | 0.02 | 79 | 993.9 |
| 20260508200022 | 60 | 276 | 5.0 | 11.0 | 0.00 | 1.24 | 0.02 | 77 | 993.8 |
| 20260508194519 | 61 | 256 | 2.0 | 10.0 | 0.00 | 1.24 | 0.02 | 73 | 993.3 |
| 20260508193017 | 61 | 246 | 6.0 | 14.0 | 0.00 | 1.24 | 0.02 | 72 | 993.2 |
| 20260508191517 | 60 | 276 | 4.0 | 10.0 | 0.00 | 1.24 | 0.02 | 75 | 992.9 |
| 20260508190036 | 60 | 259 | 2.0 | 8.0 | 0.00 | 1.24 | 0.02 | 76 | 992.4 |
| 20260508184527 | 60 | 255 | 2.0 | 11.0 | 0.00 | 1.24 | 0.02 | 74 | 992.4 |
| 20260508183026 | 59 | 277 | 5.0 | 9.0 | 0.00 | 1.24 | 0.02 | 77 | 992.7 |
| 20260508181512 | 59 | 252 | 0.0 | 1.0 | 0.00 | 1.24 | 0.02 | 79 | 993.4 |
| 20260508180012 | 59 | 252 | 0.0 | 0.0 | 0.00 | 1.26 | 0.02 | 78 | 993.7 |
| 20260508174511 | 60 | 252 | 0.0 | 9.0 | 0.00 | 1.26 | 0.02 | 76 | 993.6 |
| 20260508173013 | 60 | 285 | 4.0 | 16.0 | 0.00 | 1.26 | 0.02 | 74 | 993.2 |
| 20260508171510 | 60 | 252 | 11.0 | 18.0 | 0.00 | 1.26 | 0.02 | 75 | 993.2 |
| 20260508170010 | 60 | 334 | 6.0 | 13.0 | 0.01 | 1.28 | 0.02 | 77 | 992.9 |
| 20260508164519 | 59 | 302 | 5.0 | 12.0 | 0.01 | 1.28 | 0.02 | 79 | 993.2 |
| 20260508163013 | 60 | 250 | 6.0 | 14.0 | 0.01 | 1.28 | 0.02 | 77 | 993.1 |
| 20260508161509 | 60 | 266 | 8.0 | 18.0 | 0.02 | 1.28 | 0.02 | 76 | 993.0 |
| 20260508160004 | 59 | 264 | 9.0 | 18.0 | 0.02 | 1.28 | 0.02 | 81 | 993.3 |
| 20260508154502 | 60 | 271 | 7.0 | 22.0 | 0.02 | 1.28 | 0.02 | 79 | 993.3 |
| 20260508153002 | 59 | 273 | 9.0 | 21.0 | 0.02 | 1.28 | 0.02 | 81 | 993.4 |
| 20260508151602 | 59 | 264 | 7.0 | 17.0 | 0.01 | 1.28 | 0.01 | 80 | 993.5 |